Location: Niverville
(49.6028°N, 97.0419°W)
Time: 23:18:42
(UTC-05:00)

Amateur Radio Satellites - All Passes

Search period start: 26 May 2017 22:48
Search period end: 27 May 2017 22:48
Location: Niverville, 49.6028°N, 97.0419°W

Satellite Date Start Highest point End Downlink Frequencies (MHz)
Time Altitude Azimuth
VELOX 1 26 May 23:09:11 23:10:22 11° 54° (NE) 23:11:31 145.980
UNISAT 6 26 May 23:12:17 23:16:41 43° 98° (E) 23:21:07 437.425
PRISM 26 May 23:16:26 23:20:27 53° 101° (E) 23:24:25 437.425
M-CUBED/EXP-1 PRIME 26 May 23:19:56 23:22:46 26° 300° (WNW) 23:25:31 437.505
LO-87 26 May 23:22:22 23:25:52 61° 73° (ENE) 23:29:23 145.935 - 145.965
FO-29 26 May 23:27:01 23:33:15 61° 101° (E) 23:40:18 435.910
Tancredo 1 26 May 23:33:08 23:36:12 62° 351° (N) 23:39:16 437.200
ESTCUBE 1 26 May 23:46:51 23:51:22 69° 73° (ENE) 23:55:54 437.505/2401.250
SO-50 26 May 23:48:45 23:53:20 78° 126° (SE) 23:57:52 436.795
YUBILEINY 26 May 23:56:06 23:59:39 13° 68° (ENE) 00:03:13 435.215
ISS 27 May 00:06:42 00:09:59 61° 353° (N) 00:13:15 437.550
PCSat 27 May 00:12:03 00:14:31 13° 351° (N) 00:17:00 145.827
TIGRISAT 27 May 00:17:05 00:21:33 52° 289° (WNW) 00:26:03 435.000
NANOSAT C BR1 27 May 00:24:14 00:27:02 17° 90° (E) 00:29:50 145.865
POLYITAN 1 27 May 00:28:42 00:31:56 21° 92° (E) 00:35:10 437.675
SPROUT 27 May 00:33:58 00:38:07 57° 72° (ENE) 00:42:18 437.525
DUCHIFAT 1 27 May 00:34:34 00:37:40 19° 91° (E) 00:40:45 145.980
50 SAT 27 May 00:34:46 00:37:45 28° 67° (ENE) 00:40:45 437.505
QB50P2 27 May 00:37:07 00:40:45 26° 94° (E) 00:44:22 145.880/145.840
AIST 2D 27 May 00:39:33 00:43:02 48° 99° (E) 00:46:30 435.315
VELOX 1 27 May 00:41:37 00:46:00 70° 73° (ENE) 00:50:25 145.980
UNISAT 6 27 May 00:49:23 00:53:13 27° 296° (WNW) 00:57:05 437.425
PRISM 27 May 00:52:33 00:55:23 18° 299° (WNW) 00:58:11 437.425
LO-87 27 May 00:58:26 00:59:42 12° 271° (W) 01:00:58 145.935 - 145.965
RS-15 27 May 00:59:38 01:06:19 17° 93° (E) 01:13:03 29.354- 29.394
UKube-1 27 May 01:08:20 01:12:17 37° 67° (ENE) 01:16:16 .
Tancredo 1 27 May 01:09:05 01:12:09 67° 11° (N) 01:15:13 437.200
FO-29 27 May 01:12:41 01:18:05 32° 299° (WNW) 01:24:02 435.910
EO-79 27 May 01:13:49 01:18:01 56° 101° (E) 01:22:12 145.935-145.965
DX 1 27 May 01:16:17 01:20:34 61° 71° (ENE) 01:24:52 434.975-435.025
ESTCUBE 1 27 May 01:25:53 01:28:39 16° 271° (W) 01:31:27 437.505/2401.250
SO-50 27 May 01:30:29 01:34:16 25° 329° (NNW) 01:38:02 436.795
ISS 27 May 01:43:22 01:46:41 76° 15° (NNE) 01:49:58 437.550
YUBILEINY 27 May 01:45:57 01:54:26 59° 91° (E) 02:02:59 435.215
ITUPSAT 1 27 May 01:53:31 01:56:10 15° 55° (NE) 01:58:49 437.325
Oscar 19 27 May 01:54:30 01:58:03 18° 89° (E) 02:01:34 437.125/150
PCSat 27 May 01:57:10 02:00:19 15° 18° (NNE) 02:03:28 145.827
NANOSAT C BR1 27 May 01:58:56 02:03:06 57° 289° (WNW) 02:07:16 145.865
POLYITAN 1 27 May 02:03:51 02:07:58 47° 290° (WNW) 02:12:05 437.675
MOZHAYETS 4 27 May 02:07:31 02:08:41 11° 53° (NE) 02:09:50
50 SAT 27 May 02:07:49 02:10:38 23° 265° (W) 02:13:26 437.505
DUCHIFAT 1 27 May 02:09:30 02:13:36 49° 290° (WNW) 02:17:43 145.980
SPROUT 27 May 02:11:38 02:14:24 17° 270° (W) 02:17:11 437.525
QB50P2 27 May 02:12:42 02:16:38 36° 292° (WNW) 02:20:32 145.880/145.840
AIST 2D 27 May 02:13:42 02:15:54 16° 297° (WNW) 02:18:06 435.315
VELOX 1 27 May 02:20:24 02:22:57 15° 271° (W) 02:25:30 145.980
BEESAT 27 May 02:25:13 02:29:08 26° 62° (ENE) 02:33:05 436.000
BUGSAT 1 27 May 02:26:06 02:30:15 85° 106° (ESE) 02:34:25 437.445
UKube-1 27 May 02:44:43 02:48:24 27° 265° (W) 02:52:05 .
Tancredo 1 27 May 02:44:56 02:47:49 37° 210° (SSW) 02:50:41 437.200
EO-79 27 May 02:50:23 02:53:25 19° 299° (WNW) 02:56:26 145.935-145.965
DX 1 27 May 02:54:20 02:57:09 17° 270° (W) 02:59:58 434.975-435.025
RS-15 27 May 03:04:14 03:16:04 62° 117° (ESE) 03:28:06 29.354- 29.394
AO-7 27 May 03:12:19 03:15:50 13° 82° (E) 03:19:20 .
Gurwin Techsat 1B 27 May 03:13:26 03:18:39 52° 100° (E) 03:23:50 435.225
SO-50 27 May 03:14:15 03:16:17 13° 353° (N) 03:18:18 436.795
ISS 27 May 03:20:02 03:23:01 32° 213° (SSW) 03:25:59 437.550
ITUPSAT 1 27 May 03:28:30 03:33:17 86° 77° (ENE) 03:38:07 437.325
Oscar 19 27 May 03:32:45 03:37:55 72° 288° (WNW) 03:43:02 437.125/150
PCSat 27 May 03:40:12 03:45:18 38° 42° (NE) 03:50:21 145.827
MOZHAYETS 4 27 May 03:40:23 03:44:56 65° 72° (ENE) 03:49:34
YUBILEINY 27 May 03:43:38 03:51:40 39° 294° (WNW) 03:59:49 435.215
BEESAT 27 May 04:02:05 04:06:41 47° 261° (W) 04:11:19 436.000
BUGSAT 1 27 May 04:03:07 04:05:02 13° 303° (WNW) 04:06:57 437.445
CUBESAT XI-V 27 May 04:27:45 04:32:09 40° 67° (ENE) 04:36:33 437.345
O/OREOS (USA 219) 27 May 04:30:22 04:34:36 38° 108° (ESE) 04:38:50 437.305
KKS-1 27 May 04:30:48 04:34:51 37° 67° (ENE) 04:38:56 437.445
ITAMSAT 1 27 May 04:35:12 04:40:11 43° 99° (E) 04:45:08 435.822/435.867
Gurwin Techsat 1B 27 May 04:53:53 04:58:21 28° 299° (WNW) 05:02:48 435.225
SO-50 27 May 04:55:50 04:58:35 16° 18° (NNE) 05:01:19 436.795
STARS 27 May 05:00:30 05:04:25 33° 66° (ENE) 05:08:20 437.465
AO-7 27 May 05:02:11 05:10:27 60° 103° (ESE) 05:18:41 .
ITUPSAT 1 27 May 05:09:25 05:11:47 14° 273° (W) 05:14:10 437.325
Oscar 19 27 May 05:13:50 05:16:22 14° 308° (NW) 05:18:53 437.125/150
RS-15 27 May 05:16:49 05:28:56 59° 324° (NW) 05:41:09 29.354- 29.394
MOZHAYETS 4 27 May 05:19:30 05:22:33 17° 271° (W) 05:25:37
PCSat 27 May 05:23:37 05:28:50 48° 243° (WSW) 05:34:01 145.827
AO-85 27 May 05:27:01 05:30:54 42° 122° (ESE) 05:34:40 145.980
YUBILEINY 27 May 05:50:06 05:51:48 11° 323° (NW) 05:53:32 435.215
BEESAT 2 27 May 05:58:19 06:00:11 13° 111° (ESE) 06:02:03 435.950
STRAND 1 27 May 06:05:12 06:07:38 14° 52° (NE) 06:10:05 437.568
CUBESAT XI-V 27 May 06:05:32 06:09:37 29° 266° (W) 06:13:43 437.345
KKS-1 27 May 06:07:41 06:11:29 28° 265° (W) 06:15:19 437.445
O/OREOS (USA 219) 27 May 06:09:55 06:14:04 32° 307° (NW) 06:18:13 437.305
ITAMSAT 1 27 May 06:14:56 06:19:32 32° 297° (WNW) 06:24:07 435.822/435.867
BEESAT 3 27 May 06:14:56 06:18:43 44° 122° (ESE) 06:22:34 437.485
LilacSat-2 27 May 06:29:45 06:31:29 13° 88° (E) 06:33:12 437.200
DOVE 4 27 May 06:32:41 06:36:04 23° 93° (E) 06:39:29 437.250
CUTE-I 27 May 06:35:12 06:38:26 16° 88° (E) 06:41:39 437.470
SO-50 27 May 06:35:51 06:40:10 43° 41° (NE) 06:44:29 436.795
STARS 27 May 06:36:55 06:40:46 30° 264° (W) 06:44:39 437.465
AO-7 27 May 06:55:20 07:02:59 42° 305° (NW) 07:10:38 .
XW-2D 27 May 07:02:09 07:05:27 26° 94° (E) 07:08:43 145.860 - 145.880
M-CUBED/EXP-1 PRIME 27 May 07:03:23 07:04:35 11° 52° (NE) 07:05:45 437.505
AO-85 27 May 07:07:49 07:11:24 30° 322° (NW) 07:14:55 145.980
XW-2B 27 May 07:10:01 07:13:28 30° 96° (E) 07:16:54 145.730 - 145.750
NUDT-PHONESAT 27 May 07:19:24 07:22:47 30° 96° (E) 07:26:09 437.300
XW-2F 27 May 07:22:04 07:25:43 39° 98° (E) 07:29:20 145.980 - 146.000
XW-2C 27 May 07:23:32 07:27:15 43° 98° (E) 07:30:56 145.795 - 145.815
KAITUO 1B 27 May 07:28:39 07:32:15 38° 98° (E) 07:35:49 145.475/437.950
RS-15 27 May 07:33:05 07:44:30 40° 357° (N) 07:55:46 29.354- 29.394
BEESAT 2 27 May 07:33:19 07:37:19 85° 311° (NW) 07:41:24 435.950
STRAND 1 27 May 07:40:52 07:45:56 71° 72° (ENE) 07:51:04 437.568
BEESAT 3 27 May 07:52:53 07:56:27 30° 322° (NW) 08:00:03 437.485
HO-68 27 May 07:55:18 08:01:10 26° 91° (E) 08:06:58 435.675
LilacSat-2 27 May 08:02:19 08:06:13 67° 286° (WNW) 08:10:03 437.200
DOVE 4 27 May 08:10:04 08:13:55 38° 291° (WNW) 08:17:50 437.250
CUTE-I 27 May 08:13:49 08:19:11 85° 286° (WNW) 08:24:33 437.470
CUTE 1.7 + AOD 2 27 May 08:14:00 08:17:36 26° 93° (E) 08:21:10 437.475
SO-50 27 May 08:16:30 08:20:34 34° 241° (WSW) 08:24:38 436.795
AAUSAT CUBESAT 2 27 May 08:26:06 08:27:21 11° 86° (E) 08:28:36 437.432
M-CUBED/EXP-1 PRIME 27 May 08:34:21 08:38:29 78° 70° (ENE) 08:42:20 437.505
XW-2D 27 May 08:36:14 08:39:39 30° 293° (WNW) 08:43:03 145.860 - 145.880
XW-2B 27 May 08:44:19 08:47:35 26° 294° (WNW) 08:50:50 145.730 - 145.750
ZACube-1 27 May 08:44:51 08:46:20 11° 85° (E) 08:47:48 437.345
AO-7 27 May 08:49:33 08:53:37 15° 329° (NNW) 08:57:41 .
AO-85 27 May 08:51:56 08:53:01 11° 345° (NNW) 08:54:06 145.980
NUDT-PHONESAT 27 May 08:53:26 08:56:37 25° 294° (WNW) 08:59:45 437.300
XW-2F 27 May 08:56:42 08:59:38 21° 296° (WNW) 09:02:32 145.980 - 146.000
CUBEBUG 2 27 May 08:58:09 09:02:26 38° 97° (E) 09:06:47 437.445
XW-2C 27 May 08:58:21 09:01:11 20° 297° (WNW) 09:04:00 145.795 - 145.815
SEEDS 27 May 09:01:40 09:05:48 50° 99° (E) 09:09:53 437.485
KAITUO 1B 27 May 09:03:08 09:06:02 21° 296° (WNW) 09:08:56 145.475/437.950
NO-84 27 May 09:04:53 09:08:28 25° 134° (SE) 09:11:57 435.350 FM
UWE-3 27 May 09:07:13 09:11:16 30° 95° (E) 09:15:21 435.000/436.395/437.385
XW-2A 27 May 09:12:27 09:15:55 86° 285° (WNW) 09:19:22 145.665 - 145.685
BEESAT 2 27 May 09:12:44 09:15:41 19° 331° (NNW) 09:18:39 435.950
STRAND 1 27 May 09:22:12 09:25:40 18° 271° (W) 09:29:10 437.568
BEESAT 3 27 May 09:33:55 09:35:16 11° 345° (NNW) 09:36:36 437.485
Oscar 11 27 May 09:37:20 09:40:58 25° 93° (E) 09:44:34 .
HO-68 27 May 09:42:22 09:49:35 75° 291° (WNW) 09:56:45 435.675
TIGRISAT 27 May 09:43:53 09:47:35 29° 65° (ENE) 09:51:23 435.000
FO-29 27 May 09:45:11 09:49:56 38° 64° (ENE) 09:54:56 435.910
RS-15 27 May 09:48:20 10:00:24 52° 30° (NNE) 10:11:58 29.354- 29.394
CUTE 1.7 + AOD 2 27 May 09:49:35 09:53:32 37° 292° (WNW) 09:57:27 437.475
CUTE-I 27 May 09:55:12 09:58:30 17° 306° (NW) 10:01:47 437.470
YUBILEINY 27 May 09:57:16 09:58:20 10° 36° (NE) 09:59:25 435.215
AAUSAT CUBESAT 2 27 May 09:59:14 10:03:25 84° 284° (WNW) 10:07:32 437.432
AO-73 27 May 10:04:18 10:08:48 57° 101° (E) 10:13:18 145.935
PRISM 27 May 10:09:22 10:13:29 70° 73° (ENE) 10:17:36 437.425
M-CUBED/EXP-1 PRIME 27 May 10:11:38 10:13:19 12° 264° (W) 10:14:56 437.505
DELFI C3 27 May 10:12:32 10:15:03 16° 90° (E) 10:17:33 145.870
UNISAT 6 27 May 10:15:11 10:19:24 61° 72° (ENE) 10:23:46 437.425
ZACube-1 27 May 10:18:43 10:23:17 85° 102° (ESE) 10:27:53 437.345
AO-85 27 May 10:34:59 10:35:15 10° 11° (N) 10:35:32 145.980
CUBEBUG 2 27 May 10:35:00 10:38:57 30° 295° (WNW) 10:42:59 437.445
SEEDS 27 May 10:38:03 10:41:10 20° 298° (WNW) 10:44:16 437.485
EO-79 27 May 10:38:28 10:39:12 10° 54° (NE) 10:39:55 145.935-145.965
NO-84 27 May 10:41:24 10:45:46 85° 332° (NNW) 10:49:56 435.350 FM
UWE-3 27 May 10:43:34 10:47:46 37° 292° (WNW) 10:52:01 435.000/436.395/437.385
Oscar 11 27 May 11:13:09 11:17:14 40° 292° (WNW) 11:21:17 .
AIST 2D 27 May 11:17:54 11:21:07 34° 69° (ENE) 11:24:22 435.315
NANOSAT C BR1 27 May 11:20:14 11:23:30 22° 63° (ENE) 11:26:47 145.865
TIGRISAT 27 May 11:20:17 11:24:13 34° 264° (W) 11:28:13 435.000
POLYITAN 1 27 May 11:25:12 11:28:44 27° 64° (ENE) 11:32:18 437.675
DUCHIFAT 1 27 May 11:30:18 11:33:43 25° 64° (ENE) 11:37:10 145.980
FO-29 27 May 11:30:29 11:35:09 34° 265° (W) 11:40:03 435.910
HO-68 27 May 11:31:13 11:36:14 21° 313° (NW) 11:41:15 435.675
QB50P2 27 May 11:33:36 11:37:24 34° 67° (ENE) 11:41:14 145.880/145.840
AAUSAT CUBESAT 2 27 May 11:36:47 11:38:10 11° 304° (NW) 11:39:34 437.432
ESTCUBE 1 27 May 11:37:30 11:38:31 11° 85° (E) 11:39:32 437.505/2401.250
EO-88 27 May 11:37:46 11:41:29 84° 283° (WNW) 11:45:10 145.990 - 145.960
AO-73 27 May 11:41:17 11:44:40 21° 298° (WNW) 11:48:02 145.935
DELFI C3 27 May 11:46:18 11:50:09 51° 289° (WNW) 11:53:57 145.870
BUGSAT 1 27 May 11:46:56 11:48:53 13° 58° (ENE) 11:50:50 437.445
PRISM 27 May 11:47:09 11:49:14 13° 271° (W) 11:51:19 437.425
YUBILEINY 27 May 11:50:28 11:58:34 38° 65° (ENE) 12:06:37 435.215
UNISAT 6 27 May 11:53:49 11:56:34 16° 271° (W) 11:59:21 437.425
ZACube-1 27 May 11:56:23 11:58:58 15° 302° (WNW) 12:01:33 437.345
RS-15 27 May 12:01:35 12:13:48 74° 238° (WSW) 12:25:24 29.354- 29.394
EO-79 27 May 12:10:00 12:14:10 72° 73° (ENE) 12:18:24 145.935-145.965
AO-85 27 May 12:13:42 12:17:01 25° 35° (NE) 12:20:25 145.980
LO-87 27 May 12:18:21 12:21:44 40° 98° (E) 12:25:07 145.935 - 145.965
NO-84 27 May 12:19:43 12:23:45 40° 352° (N) 12:27:32 435.350 FM
AO-7 27 May 12:28:55 12:31:43 12° 25° (NNE) 12:34:32 .
BEESAT 2 27 May 12:32:42 12:34:33 13° 19° (NNE) 12:36:24 435.950
BEESAT 3 27 May 12:50:29 12:53:42 22° 32° (NNE) 12:56:53 437.485
AIST 2D 27 May 12:51:49 12:54:26 19° 268° (W) 12:57:06 435.315
NANOSAT C BR1 27 May 12:54:59 12:58:59 44° 261° (W) 13:03:01 145.865
O/OREOS (USA 219) 27 May 12:56:52 13:00:36 24° 48° (NE) 13:04:18 437.305
POLYITAN 1 27 May 13:00:33 13:04:25 35° 263° (W) 13:08:20 437.675
Gurwin Techsat 1B 27 May 13:00:45 13:04:48 23° 58° (ENE) 13:08:51 435.225
DUCHIFAT 1 27 May 13:05:20 13:09:14 38° 263° (W) 13:13:10 145.980
QB50P2 27 May 13:09:38 13:13:14 27° 265° (W) 13:16:53 145.880/145.840
ESTCUBE 1 27 May 13:11:31 13:16:04 83° 102° (ESE) 13:20:34 437.505/2401.250
Oscar 19 27 May 13:15:02 13:19:53 42° 66° (ENE) 13:24:46 437.125/150
BUGSAT 1 27 May 13:19:41 13:23:40 79° 256° (WSW) 13:27:44 437.445
50 SAT 27 May 13:26:36 13:28:44 15° 92° (E) 13:30:50 437.505
YUBILEINY 27 May 13:47:14 13:55:54 62° 268° (W) 14:04:32 435.215
EO-79 27 May 13:48:22 13:50:27 13° 272° (W) 13:52:32 145.935-145.965
SPROUT 27 May 13:50:51 13:55:05 61° 101° (E) 13:59:19 437.525
LO-87 27 May 13:52:28 13:54:56 18° 296° (WNW) 13:57:23 145.935 - 145.965
AO-85 27 May 13:53:44 13:57:40 58° 235° (SW) 14:01:47 145.980
NO-84 27 May 13:57:59 14:01:56 44° 13° (NNE) 14:05:35 435.350 FM
VELOX 1 27 May 14:03:26 14:07:51 77° 104° (ESE) 14:12:13 145.980
BEESAT 2 27 May 14:09:36 14:13:25 37° 41° (NE) 14:17:12 435.950
AO-7 27 May 14:14:53 14:22:00 33° 50° (NE) 14:29:08 .
RS-15 27 May 14:15:44 14:24:01 22° 263° (W) 14:32:04 29.354- 29.394
ITAMSAT 1 27 May 14:20:19 14:23:48 19° 56° (NE) 14:27:19 435.822/435.867
UKube-1 27 May 14:26:32 14:30:31 35° 97° (E) 14:34:27 .
BEESAT 3 27 May 14:27:41 14:31:43 75° 234° (SW) 14:35:42 437.485
O/OREOS (USA 219) 27 May 14:35:53 14:40:19 53° 249° (WSW) 14:44:41 437.305
DX 1 27 May 14:35:59 14:40:17 61° 102° (ESE) 14:44:35 434.975-435.025
Gurwin Techsat 1B 27 May 14:39:00 14:44:17 68° 257° (WSW) 14:49:37 435.225
ESTCUBE 1 27 May 14:49:41 14:52:16 15° 303° (WNW) 14:54:50 437.505/2401.250
Oscar 19 27 May 14:54:40 14:59:18 32° 265° (W) 15:03:59 437.125/150
50 SAT 27 May 14:58:34 15:01:47 40° 290° (WNW) 15:04:59 437.505
ITUPSAT 1 27 May 15:25:39 15:28:41 16° 89° (E) 15:31:40 437.325
SPROUT 27 May 15:27:41 15:30:35 18° 300° (WNW) 15:33:29 437.525
MOZHAYETS 4 27 May 15:33:10 15:34:39 11° 85° (E) 15:36:07
NO-84 27 May 15:35:48 15:39:42 64° 214° (SW) 15:43:14 435.350 FM
VELOX 1 27 May 15:41:09 15:43:45 16° 303° (WNW) 15:46:21 145.980
YUBILEINY 27 May 15:46:42 15:50:45 14° 291° (WNW) 15:54:50 435.215
BEESAT 2 27 May 15:47:28 15:51:09 33° 240° (WSW) 15:54:48 435.950
ITAMSAT 1 27 May 15:57:29 16:02:40 82° 255° (WSW) 16:07:54 435.822/435.867
BEESAT 27 May 15:57:39 16:01:56 31° 96° (E) 16:06:11 436.000
UKube-1 27 May 16:02:45 16:06:27 29° 296° (WNW) 16:10:08 .
AO-7 27 May 16:05:50 16:14:08 77° 252° (WSW) 16:22:31 .
DX 1 27 May 16:13:05 16:16:04 18° 301° (WNW) 16:19:02 434.975-435.025
Gurwin Techsat 1B 27 May 16:24:22 16:25:15 10° 277° (W) 16:26:08 435.225
ITUPSAT 1 27 May 17:02:13 17:07:02 74° 288° (WNW) 17:11:50 437.325
MOZHAYETS 4 27 May 17:07:51 17:12:33 84° 103° (ESE) 17:17:12
NO-84 27 May 17:15:11 17:16:28 12° 234° (SW) 17:17:43 435.350 FM
LilacSat-2 27 May 17:16:08 17:17:58 13° 59° (ENE) 17:19:48 437.200
BEESAT 27 May 17:35:20 17:39:46 38° 294° (WNW) 17:44:11 436.000
ITAMSAT 1 27 May 17:40:42 17:42:58 13° 274° (W) 17:45:14 435.822/435.867
DOVE 4 27 May 17:41:59 17:46:12 40° 69° (ENE) 17:50:14 437.250
XW-2D 27 May 17:47:33 17:50:41 25° 65° (ENE) 17:53:51 145.860 - 145.880
KKS-1 27 May 17:53:20 17:57:31 39° 98° (E) 18:01:41 437.445
XW-2B 27 May 17:55:20 17:58:37 28° 67° (ENE) 18:01:58 145.730 - 145.750
CUBESAT XI-V 27 May 17:56:44 18:01:19 52° 100° (E) 18:05:50 437.345
CUTE-I 27 May 18:00:42 18:05:36 40° 65° (ENE) 18:10:31 437.470
NUDT-PHONESAT 27 May 18:02:48 18:05:58 27° 66° (ENE) 18:09:10 437.300
AO-7 27 May 18:02:56 18:08:19 18° 274° (W) 18:13:45 .
XW-2F 27 May 18:06:52 18:10:22 36° 69° (ENE) 18:13:54 145.980 - 146.000
XW-2C 27 May 18:08:43 18:12:17 39° 70° (ENE) 18:15:54 145.795 - 145.815
KAITUO 1B 27 May 18:12:35 18:16:02 34° 69° (ENE) 18:19:31 145.475/437.950
STARS 27 May 18:21:11 18:25:11 34° 97° (E) 18:29:12 437.465
HO-68 27 May 18:28:43 18:34:54 33° 55° (NE) 18:41:06 435.675
PCSat 27 May 18:30:29 18:31:54 11° 101° (E) 18:33:20 145.827
ITUPSAT 1 27 May 18:41:53 18:44:03 13° 307° (NW) 18:46:13 437.325
MOZHAYETS 4 27 May 18:46:20 18:49:06 16° 303° (WNW) 18:51:50
LilacSat-2 27 May 18:47:51 18:51:42 74° 258° (WSW) 18:55:36 437.200
CUTE 1.7 + AOD 2 27 May 19:10:30 19:14:18 32° 67° (ENE) 19:18:08 437.475
AAUSAT CUBESAT 2 27 May 19:19:53 19:22:14 15° 59° (ENE) 19:24:34 437.432
DOVE 4 27 May 19:20:20 19:24:02 24° 266° (W) 19:27:37 437.250
XW-2D 27 May 19:21:17 19:24:45 32° 264° (W) 19:28:15 145.860 - 145.880
XW-2B 27 May 19:29:28 19:32:47 28° 265° (W) 19:36:09 145.730 - 145.750
KKS-1 27 May 19:30:11 19:33:56 27° 297° (WNW) 19:37:40 437.445
AO-73 27 May 19:31:26 19:32:29 11° 54° (NE) 19:33:34 145.935
CUBESAT XI-V 27 May 19:34:44 19:38:22 23° 299° (WNW) 19:41:58 437.345
NUDT-PHONESAT 27 May 19:36:34 19:39:49 28° 265° (W) 19:43:08 437.300
CUTE-I 27 May 19:40:52 19:45:42 35° 264° (W) 19:50:34 437.470
XW-2F 27 May 19:41:37 19:44:37 22° 267° (W) 19:47:39 145.980 - 146.000
XW-2C 27 May 19:43:45 19:46:38 20° 268° (W) 19:49:33 145.795 - 145.815
ZACube-1 27 May 19:44:28 19:46:59 15° 58° (ENE) 19:49:32 437.345
KAITUO 1B 27 May 19:47:06 19:50:08 22° 267° (W) 19:53:11 145.475/437.950
XW-2A 27 May 19:47:31 19:50:51 61° 73° (ENE) 19:54:13 145.665 - 145.685
STRAND 1 27 May 19:47:53 19:51:18 18° 89° (E) 19:54:42 437.568
SEEDS 27 May 19:56:59 20:01:10 60° 72° (ENE) 20:05:23 437.485
STARS 27 May 19:57:38 20:01:29 30° 295° (WNW) 20:05:19 437.465
CUBEBUG 2 27 May 20:00:24 20:04:26 49° 70° (ENE) 20:08:36 437.445
UWE-3 27 May 20:08:19 20:12:13 38° 68° (ENE) 20:16:15 435.000/436.395/437.385
PCSat 27 May 20:08:53 20:14:15 65° 120° (ESE) 20:19:39 145.827
HO-68 27 May 20:15:03 20:22:12 67° 256° (WSW) 20:29:24 435.675
Oscar 11 27 May 20:35:58 20:39:51 33° 67° (ENE) 20:43:47 .
CUTE 1.7 + AOD 2 27 May 20:46:18 20:50:07 31° 265° (W) 20:53:58 437.475
AAUSAT CUBESAT 2 27 May 20:52:58 20:57:10 74° 259° (W) 21:01:22 437.432
Tancredo 1 27 May 20:55:15 20:57:50 25° 145° (SE) 21:00:25 437.200
DELFI C3 27 May 21:02:05 21:04:50 18° 62° (ENE) 21:07:36 145.870
AO-73 27 May 21:03:39 21:07:54 72° 74° (ENE) 21:12:16 145.935
ZACube-1 27 May 21:18:27 21:22:41 75° 257° (WSW) 21:27:05 437.345
XW-2A 27 May 21:23:20 21:24:00 10° 272° (W) 21:24:40 145.665 - 145.685
STRAND 1 27 May 21:25:54 21:31:03 75° 288° (WNW) 21:36:12 437.568
SEEDS 27 May 21:34:32 21:37:15 16° 271° (W) 21:39:58 437.485
CUBEBUG 2 27 May 21:38:22 21:41:23 19° 270° (W) 21:44:29 437.445
ISS 27 May 21:38:25 21:41:30 37° 149° (SSE) 21:44:35 437.550
M-CUBED/EXP-1 PRIME 27 May 21:43:39 21:46:13 21° 100° (E) 21:48:46 437.505
UWE-3 27 May 21:45:18 21:48:48 25° 267° (W) 21:52:25 435.000/436.395/437.385
PCSat 27 May 21:53:15 21:58:04 31° 322° (NW) 22:02:54 145.827
UNISAT 6 27 May 22:05:17 22:05:41 10° 85° (E) 22:06:05 437.425
HO-68 27 May 22:07:52 22:11:20 14° 277° (W) 22:14:48 435.675
Oscar 11 27 May 22:12:09 22:16:00 30° 265° (W) 22:19:52 .
EO-88 27 May 22:19:14 22:22:53 79° 77° (ENE) 22:26:36 145.990 - 145.960
Tancredo 1 27 May 22:30:17 22:33:21 84° 340° (NNW) 22:36:26 437.200
FO-29 27 May 22:32:30 22:37:55 27° 93° (E) 22:43:49 435.910
SO-50 27 May 22:34:40 22:38:29 26° 117° (ESE) 22:42:17 436.795
DELFI C3 27 May 22:35:23 22:39:17 51° 260° (W) 22:43:12 145.870
ESTCUBE 1 27 May 22:39:58 22:43:06 19° 59° (ENE) 22:46:13 437.505/2401.250
AO-73 27 May 22:42:28 22:44:41 14° 273° (W) 22:46:56 145.935
